Regional Weather Roundup
Issued by NWS Sioux Falls, SD

Home | Current Version | Previous Version | Graphics & Text | Print | Product List | Glossary On
Versions: 1 2 3 4 5 6 7 8 9 10 11 12 13 14 15 16 17 18 19 20 21 22 23 24 25 26 27 28 29 30 31 32 33 34 35 36 37 38 39 40 41 42 43 44 45 46 47 48 49 50
000
ASUS43 KFSD 311510
RWRFSD

WEATHER ROUNDUP FOR SE SOUTH DAKOTA/SW MINNESOTA/NW IOWA
NATIONAL WEATHER SERVICE SIOUX FALLS SD
1000 AM CDT MON AUG 31 2015

NOTE: "FAIR" INDICATES FEW OR NO CLOUDS BELOW 12,000 FEET WITH NO
SIGNIFICANT WEATHER AND OR OBSTRUCTIONS TO VISIBILITY.


SDZ038>040-050-052>070-311600-
SOUTHEAST SOUTH DAKOTA

CITY           SKY/WX    TMP DP  RH WIND       PRES   REMARKS
BROOKINGS      MOSUNNY   70  64  83 S17       29.89S
CHAMBERLAIN    SUNNY     74  60  61 SW9       29.81R
HURON          MOSUNNY   73  64  73 S16G25    29.78R
MADISON        FAIR      68  68 100 S16G22    29.88S
MITCHELL       SUNNY     73  65  75 S12G21    29.83R
SIOUX FALLS    MOSUNNY   72  67  84 S13       29.89S
WINNER         FAIR      80  53  39 SW15      29.82R
YANKTON        SUNNY     72  66  83 S9        29.88S
$$

MNZ071-072-080-081-089-090-097-098-311600-
SOUTHWEST MINNESOTA

CITY           SKY/WX    TMP DP  RH WIND       PRES   REMARKS
FAIRMONT       CLOUDY    70  64  83 S14       29.95S
JACKSON        MOSUNNY   72  70  94 S14       29.95S FOG
LUVERNE        PTSUNNY   70  68  94 S12G18    29.92F FOG
MARSHALL       SUNNY     73  63  68 SW25G32   29.88R
MONTEVIDEO     SUNNY     73  72  94 SW14G22   29.84F
PIPESTONE      MOSUNNY   72  66  83 S13G20    29.91S
REDWOOD FALLS  SUNNY     72  67  84 S16       29.89R
TRACY          SUNNY     72  67  86 SW22      29.89S
WINDOM         MOSUNNY   73  68  83 S15G21    29.93R
WORTHINGTON    CLOUDY    70  66  88 S16G22    29.94R
$$

IAZ001>003-012>014-020>022-031-032-NEZ013-014-SDZ071-311600-
NORTHWEST IOWA

CITY           SKY/WX    TMP DP  RH WIND       PRES   REMARKS
CHEROKEE       CLOUDY    69  69 100 S8        29.96S FOG
DENISON        MOSUNNY   72  70  94 VRB7      29.96S FOG
ESTHERVILLE    FOG       66  66 100 S12       29.96S VSB 3/4
LE MARS        PTSUNNY   72  70  94 S10       29.95R FOG
ORANGE CITY    CLOUDY    70  70 100 S10       29.95R FOG
SHELDON        CLOUDY    70  68  94 S10G17    29.94R FOG
SIOUX CITY     CLOUDY    69  67  93 S13       29.94S FOG
SPENCER        CLOUDY    70  67  90 S9        29.96S FOG
STORM LAKE     MOSUNNY   70  70 100 S9        29.98S FOG
$$

ABBREVIATIONS USED IN REMARKS
   TC - TEMPERATURE IN CELSIUS
  WCI - WIND CHILL INDEX
   HX - HEAT INDEX
  VSB - VISIBILITY




USA.gov is the U.S. government's official web portal to all federal, state and local government web resources and services.